Flag for Moldova Weather past 2 weeks in Chisinau, Moldova

Now
81 °F

Thundershowers. Passing clouds.


Feels Like: 81 °F
Forecast: 66 / 88 °F
Wind: 8 mph from Southeast

Location: Chisinau International Airport

Current Time: Jul 26, 2014 at 11:16:48 PM

Latest Report: Jul 26, 2014 at 10:30 PM


Visibility: N/A

Pressure: 29.98 "Hg

Humidity: 45%

Dew point: 57 °F

Location of ChisinauLocation

Historic Weather in Chisinau — Graph

°F

Chisinau temperature yesterday

Maximum temperature yesterday: 86 °F (at 6:00 PM)
Minimum temperature yesterday: 64 °F (at 4:00 AM)
Average temperature yesterday: 74 °F

Past Weeks' High & Low Weather Summary

 TemperatureHumidityPressure
High90 °F (Jul 26, 3:30 PM)94% (Jul 11, 10:00 PM)29.98 "Hg (Jul 11, 10:00 PM)
Low59 °F (Jul 13, 6:00 AM)24% (Jul 26, 3:30 PM)29.59 "Hg (Jul 11, 11:30 PM)
Average74 °F63%29.86 "Hg
* Reported Jul 11 10:00 PM — Jul 26 10:00 PM, Chisinau, Weather by CustomWeather, © 2014

Note: Actual official high and low records may vary slightly from our data, if they occured in-between our weather recording intervals... More about our weather records

Advertising

Chisinau weather history for previous 24 hours

 ConditionsComfort  
Time TempWeatherWind HumidityBarometerVisibility
10:00 PM
Jul 26
81 °FThundershowers. Passing clouds.8 mph42%29.98 "HgN/A
9:30 PM82 °FScattered clouds.9 mph40%29.95 "HgN/A
9:00 PM84 °FScattered clouds.9 mph40%29.95 "HgN/A
8:30 PM84 °FScattered clouds.8 mph40%29.95 "HgN/A
8:00 PM86 °FScattered clouds.8 mph38%29.92 "HgN/A
7:30 PM86 °FScattered clouds.8 mph38%29.92 "HgN/A
7:00 PM88 °FScattered clouds.8 mph33%29.92 "HgN/A
6:30 PM88 °FScattered clouds.13 mph35%29.92 "HgN/A
6:00 PM88 °FScattered clouds.12 mph35%29.92 "HgN/A
5:30 PM88 °FScattered clouds.13 mph35%29.92 "HgN/A
5:00 PM90 °FScattered clouds.13 mph29%29.92 "HgN/A
4:30 PM90 °FPassing clouds.14 mph27%29.92 "HgN/A
4:00 PM90 °FPassing clouds.13 mph26%29.92 "HgN/A
3:30 PM90 °FPassing clouds.8 mph24%29.92 "HgN/A
3:00 PM88 °FPassing clouds.13 mph35%29.95 "HgN/A
2:30 PM86 °FPassing clouds.12 mph38%29.95 "HgN/A
2:00 PM84 °FPassing clouds.10 mph43%29.95 "HgN/A
1:30 PM86 °FPassing clouds.12 mph43%29.95 "HgN/A
1:00 PM86 °FPassing clouds.6 mph40%29.95 "HgN/A
12:30 PM84 °FPassing clouds.8 mph45%29.95 "HgN/A
12:00 PM81 °FPassing clouds.7 mph48%29.98 "HgN/A
11:30 AM79 °FPassing clouds.8 mph51%29.98 "HgN/A
11:00 AM77 °FSunny.9 mph51%29.98 "Hg10 mi
10:30 AM77 °FSunny.8 mph51%29.98 "Hg10 mi
10:00 AM75 °FSunny.8 mph50%29.98 "Hg10 mi
9:30 AM73 °FSunny.8 mph57%29.98 "Hg10 mi
9:00 AM72 °FPassing clouds.6 mph61%29.95 "HgN/A
8:30 AM70 °FSunny.9 mph64%29.95 "Hg10 mi
8:00 AM70 °FSunny.8 mph64%29.95 "Hg10 mi
7:30 AM66 °FPassing clouds.9 mph73%29.95 "HgN/A
7:00 AM66 °FSunny.8 mph73%29.95 "Hg10 mi
6:30 AM64 °FClear.8 mph78%29.95 "Hg10 mi
6:00 AM64 °FClear.6 mph78%29.95 "Hg10 mi
5:30 AM64 °FClear.7 mph78%29.95 "Hg10 mi
5:00 AM64 °FClear.7 mph78%29.95 "Hg10 mi
4:30 AM64 °FClear.8 mph78%29.95 "Hg10 mi
4:00 AM64 °FClear.8 mph78%29.95 "Hg10 mi
3:30 AM66 °FClear.6 mph73%29.95 "Hg10 mi
2:30 AM66 °FPassing clouds.5 mph73%29.95 "HgN/A
2:00 AM68 °FClear.7 mph69%29.95 "Hg10 mi
1:30 AM68 °FClear.5 mph64%29.95 "Hg10 mi
1:00 AM70 °FClear.8 mph60%29.95 "Hg10 mi
12:30 AM70 °FClear.8 mph60%29.95 "Hg10 mi
12:00 AM72 °FClear.8 mph57%29.95 "Hg10 mi
11:30 PM
Jul 25
72 °FClear.7 mph53%29.95 "Hg10 mi
11:00 PM73 °FClear.7 mph50%29.95 "Hg10 mi
Weather by CustomWeather, © 2014

See weather overviewHow to use our weather pages